Find Starlink 36988

NORAD ID: 67998 Int'l Des: 2026-039 Owner: SPXS Country: US Constellation: starlink operational
LEOCIRCULAR

リアルタイム位置

3D地球を読み込み中...

Starlink 36988について

説明を読み込み中...

次回通過

Passes for default location (London). Set your location on the main map for personalized predictions.

高度履歴

Loading altitude history...

軌道要素

1 67998U 26039N 26105.28524496 .00007586 00000-0 28490-3 0 9995
2 67998 43.0002 201.9611 0001841 279.6916 80.3727 15.27582743 7305
Epoch: Apr 15, 2026 • Age: 29 hours

現在のステータス

高度 484.0 km
速度 7.63 km/s
衛星直下点 25.57°N, 35.75°W
打ち上げ日 Feb 27, 2026
運用期間 0.1 years
タイプ internet

技術仕様

分類 Payload
質量 575.00 kg
乾燥質量 530.00 kg
総質量 575.00 kg
長さ 0.30 m
直径 4.10 m
スパン 29.00 m
形状 Box + pan
製造者 SPXS
バスタイプ Starlink V2MO
フェーズステータス In Orbit
所有者/国 SPXS/US

Most Searched